Regional Weather Roundup
Issued by NWS Sterling, VA

Current Version | Previous Version | Text Only | Print | Product List | Glossary On
Versions: 1 2 3 4 5 6 7 8 9 10 11 12 13 14 15 16 17 18 19 20 21 22 23 24 25 26 27 28 29 30 31 32 33 34 35 36 37 38 39 40 41 42 43 44 45 46 47 48 49 50
683
ASUS41 KLWX 172111
RWRLWX

REGIONAL WEATHER ROUNDUP
NATIONAL WEATHER SERVICE BALTIMORE MD/WASHINGTON DC
400 PM EST TUE JAN 17 2017

Note: "FAIR" indicates few or no clouds below 12,000 feet
with no significant weather and/or obstructions to visibility.
 TC=TEMPERATURE CELSIUS

 * =Non NWS site. Station does not report precipitation (e.g. rain,
    snow, etc.), thunder, or fog.

DCZ001-MDZ009-015-VAZ040>042-051-053>054-172200-
WASHINGTON METRO

CITY           SKY/WX    TMP DP  RH WIND       PRES   REMARKS
WASHINGTON NAT CLOUDY    48  48 100 S7        30.00F
DULLES         CLOUDY    47  45  93 S5        29.99S FOG
ANDREWS AFB    CLOUDY    48  46  93 S6        29.99F FOG
FT BELVOIR     CLOUDY    48  46  95 CALM      30.00S
QUANTICO       CLOUDY    49  48  97 SW7       30.01F FOG
LEESBURG*      CLOUDY    46  46 100 CALM      29.99F FOG
MANASSAS*      CLOUDY   N/A N/A N/A CALM        N/A  FOG
GAITHERSBURG*  CLOUDY    45  41  87 SE3       30.03F

$$

MDZ006>007-011-014-172200-
BALTIMORE METRO

CITY           SKY/WX    TMP DP  RH WIND       PRES   REMARKS
BWI AIRPORT    RAIN      44  44 100 E5        30.01F FOG
MD SCIENCE CTR   N/A     44  41  89 MISG      30.01F
MARTIN STATE   RAIN      43  43 100 SE3       30.04F
ANNAPOLIS      RAIN      45  42  89 S6        30.02F FOG
FORT MEADE*    PTSUNNY   45  43  93 CALM      30.02F

$$

MDZ012-015-019>023-172200-
MARYLAND EASTERN SHORE

CITY           SKY/WX    TMP DP  RH WIND       PRES   REMARKS
OCEAN CITY     CLOUDY    47  47 100 SW13      30.05F FOG
SALISBURY      CLOUDY    53  49  86 S10       30.04F
BAY BRIDGE AP* RAIN      45  45 100 SE8       30.02F FOG
CAMBRIDGE*     CLOUDY    46  45  93 S6        30.03F
EASTON*        RAIN      48  46  93 S6        30.07F

$$

MDZ017>025-172200-
SOUTHERN MARYLAND

CITY           SKY/WX    TMP DP  RH WIND       PRES   REMARKS
PATUXENT RIVER LGT RAIN  43  43 100 SE9       30.03S FOG
ST INIGOES     CLOUDY    53  49  86 SE5       30.02F
LEONARDTOWN*   CLOUDY    52  50  93 CALM      30.03S

$$

MDZ003>005-172200-
NORTH CENTRAL MARYLAND

CITY           SKY/WX    TMP DP  RH WIND       PRES   REMARKS
FREDERICK*     LGT RAIN  43  43 100 CALM      30.02F
HAGERSTOWN APT LGT RAIN  39  36  89 N5        29.96S VSB 3/4
WESTMINSTER*   RAIN      41  41 100 SE5       29.97F

$$

MDZ501>502-172200-
WESTERN MARYLAND

CITY           SKY/WX    TMP DP  RH WIND       PRES   REMARKS
OAKLAND*         N/A     52  52 100 SW15G29   29.90S
CUMBERLAND*    CLOUDY    41  41 100 CALM      29.97S

$$

VAZ025>031-172200-
SHENANDOAH VALLEY

CITY           SKY/WX    TMP DP  RH WIND       PRES   REMARKS
WINCHESTER*    CLOUDY    46  45  93 CALM      29.94S
FRONT ROYAL*   FAIR      48  48 100 CALM      29.92F
LURAY*         FAIR      59  55  88 SW8       29.94F
NEW MARKET*    MOCLDY    59  52  77 SW7       29.93F
STAUNTON*      CLOUDY    56  51  83 CALM      29.99S
WAYNESBORO*    MOCLDY    58  50  76 SW9       29.98S

$$

WVZ021-048>050-054>055-172200-
EASTERN WEST VIRGINIA PANHANDLE

CITY           SKY/WX    TMP DP  RH WIND       PRES   REMARKS
MARTINSBURG    FOG       41  39  93 NW5       29.94F VSB 1
PETERSBURG*    CLOUDY    55  52  90 E3        29.90F

$$

VAZ036>039-050-172200-
CENTRAL FOOTHILLS

CITY           SKY/WX    TMP DP  RH WIND       PRES   REMARKS
CHARLOTTESVILL CLOUDY    54  51  90 SW9       30.00R
CULPEPER*      CLOUDY    51  50  97 SW3       30.00F FOG
ORANGE*          N/A     52  52 100 S6        30.02S
GORDONSVILLE*  CLOUDY    52  51  97 SW9       30.00S
WARRENTON*     CLOUDY    51  47  88 SW3       29.99S FOG

$$

VAZ055>057-172200-
NORTH AND CENTRAL PIEDMONT

CITY           SKY/WX    TMP DP  RH WIND       PRES   REMARKS
FREDERICKSBRG* CLOUDY    53  53 100 S3        30.01R
STAFFORD*      CLOUDY    51  51 100 CALM      30.05S FOG

$$

NCZ024-NYZ072-PAZ021-071-VAZ022-071-172200-
OTHER REGIONAL OBSERVATIONS

CITY           SKY/WX    TMP DP  RH WIND       PRES   REMARKS
NEW YORK CITY  CLOUDY    40  37  89 E7        30.11S FOG
PHILADELPHIA   LGT RAIN  45  41  86 E5        30.04F FOG
PITTSBURGH     PTSUNNY   61  53  75 SW13G24   29.81R
ROANOKE        CLOUDY    53  51  93 SE5       30.05S
RICHMOND       CLOUDY    57  52  83 S9        30.04R
RALEIGH        LGT RAIN  61  54  77 SW8       30.12F

$$

ANZ530>537-172200-
MARINE OBSERVATIONS

STATION/POSITION TIME  TEMP    WIND        PRES
                       AIR SEA DIR/SP/G
                 (UTC) (F)     (DEG/KT/KT) (MB)
THOMAS PT LIGHT  2100   42 39  150/ 11/ 11   N/A
BALT KEY BRIDGE  2048   41     120/  8/  9 1016.4F
COVE POINT       2048   41     180/  7/  8 1017.6F
LEWISETTA        2048   56 43  240/  5/  6 1016.4F
SOLOMONS ISLAND  2048      41   70/  7/  8   N/A
PINEY POINT      2048          110/  5/  6   N/A

$$





USA.gov is the U.S. government's official web portal to all federal, state and local government web resources and services.